Location: Poughquag
(41.6090°N, 73.6820°W)
Time: 06:05:48
(UTC-04:00)

ITUPSAT 1 - Pass Details

Date: 19 June 2024
Orbit: 695 x 705 km, 98.5° (Epoch: 24 July)

Event Time Altitude Azimuth Distance (km) Brightness Sun altitude
Rises 22:05:50 0° 28° (NNE) 3,105 ? -13.9°
Reaches altitude 10° 22:08:35 10° 44° (NE) 2,182 ? -14.2°
Maximum altitude 22:12:15 22° 94° (E) 1,532 ? -14.7°
Enters shadow 22:13:24 20° 114° (ESE) 1,605 ? -14.8°
